User: anonymous   Login
Location: Peebles
(55.6412°N, 3.1714°W)
Time: 23:18:54
(UTC+00:00)
Language:

AO-7 - Orbit

View from above orbital plane
View from above orbital plane
View from above satellite
View from above satellite

Ground track
Ground track

The orbit data is extracted from the following two-line orbital elements,

1 07530U 74089B   22336.42041281 -.00000021  00000-0  15625-3 0  9997
2 07530 101.9269 316.9457 0012458  79.9449  75.1818 12.53658988198511
Epoch (UTC): 02 December 2022 10:05:23
Eccentricity: 0.0012458
inclination: 101.9269°
perigee height: 1439 km
apogee height: 1459 km
right ascension of ascending node: 316.9457°
argument of perigee: 79.9449°
revolutions per day: 12.53658988
mean anomaly at epoch: 75.1818°
orbit number at epoch: 19851

The dashed part of the orbit path shows where the satellite is in the earth's shadow,  

DLR